Location: El Limón
(10.3059°N, 67.6321°W)
Time: 03:22:29
(UTC+00:00)

H-2A R/B - Visible Passes

Search period start: 25 July 2024 00:00
Search period end: 04 August 2024 00:00
Orbit: 730 x 834 km, 98.2° (Epoch: 24 July)

Date Brightness Start Highest point End Pass type
(mag) Time Alt. Az. Time Alt. Az. Time Alt. Az.
25 Jul 4.8 07:18:37 10° E 07:19:22 10° E 07:19:22 10° E visible
25 Jul 2.3 08:54:10 10° N 08:58:45 41° WNW 08:59:55 36° WSW visible
26 Jul 1.9 08:22:04 10° NNE 08:26:59 78° ESE 08:27:39 65° SSE visible
27 Jul 3.4 07:50:52 10° NE 07:55:11 31° E 07:55:23 30° ESE visible
27 Jul 3.6 09:31:28 10° NW 09:34:14 15° WNW 09:35:55 13° W visible
28 Jul 4.7 07:21:23 10° ENE 07:23:06 12° E 07:23:06 12° E visible
28 Jul 2.5 08:58:01 10° N 09:02:32 37° WNW 09:03:40 33° WSW visible
29 Jul 1.8 08:25:49 10° NNE 08:30:46 87° E 08:31:23 69° S visible
30 Jul 3.3 07:54:29 10° NE 07:58:58 35° E 07:59:07 35° ESE visible
30 Jul 3.7 09:35:38 10° NW 09:38:00 14° WNW 09:39:40 12° W visible
31 Jul 4.6 07:24:33 10° ENE 07:26:50 14° E 07:26:50 14° E visible
31 Jul 2.7 09:01:53 10° NNW 09:06:18 33° WNW 09:07:23 30° WSW visible
01 Aug 1.8 08:29:34 10° N 08:34:32 83° WNW 08:35:07 70° SSW visible
02 Aug 3.1 07:58:05 10° NNE 08:02:44 39° E 08:02:50 39° ESE visible
02 Aug 3.8 09:39:54 10° NW 09:41:46 12° WNW 09:43:24 10° W visible
03 Aug 4.4 07:27:51 10° ENE 07:30:34 16° E 07:30:34 16° E visible
03 Aug 2.8 09:05:46 10° NNW 09:10:04 30° WNW 09:11:07 27° W visible
